This is the latest recevied weather packets stored in our database for station/object NK7E. If no packets are shown the sender has not sent any weather packets the latest 10 day(s).
| Time | Temp. | Humidity | Pressure | Rain* | Wind** | Luminosity | Snow |
|---|---|---|---|---|---|---|---|
| 1777553116 | 17.78° C | 27% | 1011.5 hPa | 0 mm | - | 0 W/m² | - |
| 1777552516 | 17.78° C | 27% | 1011.5 hPa | 0 mm | - | 0 W/m² | - |
| 1777551916 | 17.78° C | 27% | 1011.5 hPa | 0 mm | - | 0 W/m² | - |
| 1777551316 | 17.78° C | 27% | 1011.2 hPa | 0 mm | - | 0 W/m² | - |
| 1777550716 | 17.78° C | 27% | 1011.3 hPa | 0 mm | - | 0 W/m² | - |
| 1777550116 | 17.78° C | 27% | 1011.3 hPa | 0 mm | - | 0 W/m² | - |
| 1777549516 | 17.78° C | 27% | 1011.4 hPa | 0 mm | - | 0 W/m² | - |
| 1777548921 | 18.33° C | 27% | 1011.5 hPa | 0 mm | - | 0 W/m² | - |
| 1777548316 | 18.33° C | 27% | 1011.6 hPa | 0 mm | - | 0 W/m² | - |
| 1777547716 | 18.33° C | 27% | 1011.7 hPa | 0 mm | - | 0 W/m² | - |
| 1777547116 | 18.33° C | 27% | 1011.7 hPa | 0 mm | - | 0 W/m² | - |
| 1777546516 | 18.33° C | 27% | 1012.1 hPa | 0 mm | - | 0 W/m² | - |
| 1777545916 | 18.33° C | 28% | 1012.3 hPa | 0 mm | - | 0 W/m² | - |
| 1777545316 | 18.89° C | 27% | 1012.2 hPa | 0 mm | - | 0 W/m² | - |
| 1777544716 | 18.89° C | 27% | 1012.2 hPa | 0 mm | - | 0 W/m² | - |
| 1777544116 | 18.89° C | 26% | 1012.1 hPa | 0 mm | - | 0 W/m² | - |
| 1777543516 | 19.44° C | 24% | 1012.1 hPa | 0 mm | - | 0 W/m² | - |
| 1777542916 | 19.44° C | 26% | 1012.3 hPa | 0 mm | - | 0 W/m² | - |
| 1777542316 | 19.44° C | 25% | 1012.4 hPa | 0 mm | - | 0 W/m² | - |
| 1777541716 | 20° C | 24% | 1012.5 hPa | 0 mm | - | 0 W/m² | - |
| 1777541116 | 20° C | 23% | 1012.6 hPa | 0 mm | - | 0 W/m² | - |
| 1777540516 | 20.56° C | 23% | 1012.7 hPa | 0 mm | - | 0 W/m² | - |
| 1777539916 | 20.56° C | 22% | 1012.5 hPa | 0 mm | - | 0 W/m² | - |
| 1777539316 | 21.11° C | 23% | 1012.3 hPa | 0 mm | - | 0 W/m² | - |
| 1777538716 | 21.11° C | 26% | 1012.6 hPa | 0 mm | - | 0 W/m² | - |
* Rain latest hour (hover to see other rain measurements)
** Current wind speed in m/s (hover to see current wind gust speed)